Погода в Никологорах

Россия / Владимирская область     56°08′25″N   41°59′37″E
темп.,
°C
ветер,
м/с
пор.,
м/с
влажн.,
%
обл.,
%
осадки,
мм/ч
давл.,
гПа
погр.,
м
5 августа, чт
чт500:00+14с226617 0.0 101619
03:00+12зсз1170100 0.0 101711
06:00+15св2258100 0.0 101865
09:00+18всв124924 0.0 1018252
12:00+24юв123513 0.0 10181743
15:00+24ююв1235100 0.0 10172168
18:00+22всв3448100 0.0 1016218
21:00+18всв1351100 0.0 101675
6 августа, пт
пт600:00+17св2361100 0.1 101673
03:00+15в41063100 0.2 1015207
06:00+15юв31078100 0.5 1015311
09:00+18ююв498099 1.1 1014349
12:00+23ююз4658100 0.1 1014977
15:00+19юв3775100 0.1 1014416
18:00+17юв2495100 1.4 1014146
21:00+16в3895100 2.1 1014191
7 августа, сб
сб700:00+16в41393100 0.1 1013385
03:00+16в499448 0.6 1012278
06:00+16в369574 0.8 1013206
09:00+21юв357683 1.8 1013480
12:00+20юв267999 0.4 1013211
15:00+29ю4535100 0.7 10121297
18:00+27ююз1349100 0.0 1012101
21:00+22в31055100 0.0 1012197
8 августа, вс
вс800:00+20юв3116198 0.0 1012250
03:00+19ююв3106175 0.0 1013210
06:00+19ююв3964100 0.0 1013211
09:00+25ююв354293 0.0 1012373
12:00+30ююз353046 0.0 10131265
15:00+31зюз463290 0.0 10131722
18:00+26з465898 0.0 1014464
21:00+22зсз3779100 0.1 1016248
9 августа, пн
пн900:00+18зсз1190100 0.4 101711
03:00+16з118972 0.4 101811
06:00+17зсз23867 0.0 101875
09:00+22зсз236219 0.0 1018576
12:00+26зсз344326 0.0 10181484
15:00+27з3439100 0.0 10181783
18:00+25сз2351100 0.0 1017191
21:00+20ссз2265100 0.0 101821